CW3019 Weather Reports


Display with metric or nautical units.
time (UTC)temp
F
wind
direction
speed
MPH
gust
MPH
rain 1hr
in
rain 24hr
in
rain mn
in
humidity
%
barometer
mb
20200714192335 92 126 6.0 11.0 0.00 0.00 0.00 63 1013.4
20200714191346 92 126 6.0 11.0 0.00 0.00 0.00 64 1013.4
20200714190331 92 149 6.0 11.0 0.00 0.00 0.00 65 1013.4
20200714185330 92 124 6.0 17.0 0.00 0.00 0.00 66 1013.5
20200714184330 92 134 7.0 13.0 0.00 0.00 0.00 67 1013.5
20200714183331 92 110 6.0 10.0 0.00 0.00 0.00 65 1013.5
20200714182334 92 227 6.0 12.0 0.00 0.00 0.00 64 1013.5
20200714181346 92 192 7.0 12.0 0.00 0.00 0.00 66 1013.5
20200714180345 92 144 6.0 13.0 0.00 0.00 0.00 64 1013.5
20200714175345 91 166 8.0 14.0 0.00 0.00 0.00 65 1013.4
20200714174345 91 160 8.0 15.0 0.00 0.00 0.00 66 1013.5
20200714173328 92 131 7.0 13.0 0.00 0.00 0.00 65 1013.5
20200714172347 91 198 7.0 14.0 0.00 0.00 0.00 63 1013.4
20200714171338 91 180 8.0 14.0 0.00 0.00 0.00 63 1013.5
20200714170339 91 190 8.0 13.0 0.00 0.00 0.00 63 1013.5
20200714165341 91 184 8.0 13.0 0.00 0.00 0.00 66 1013.5
20200714164340 90 184 9.0 15.0 0.00 0.00 0.00 65 1013.5
20200714163341 90 219 7.0 13.0 0.00 0.00 0.00 65 1013.5
20200714162340 89 153 5.0 13.0 0.00 0.00 0.00 71 1013.5
20200714161337 89 150 6.0 12.0 0.00 0.00 0.00 73 1013.6
20200714160337 89 186 6.0 13.0 0.00 0.00 0.00 71 1013.6
20200714155337 88 181 8.0 14.0 0.00 0.00 0.00 70 1013.5
20200714154337 88 207 7.0 13.0 0.00 0.00 0.00 72 1013.5
20200714153337 89 158 5.0 12.0 0.00 0.00 0.00 75 1013.5
20200714152340 88 209 6.0 11.0 0.00 0.00 0.00 75 1013.4
20200714151331 87 173 7.0 16.0 0.00 0.00 0.00 78 1013.4
20200714150331 86 190 8.0 13.0 0.00 0.00 0.00 79 1013.4
20200714145331 86 202 8.0 11.0 0.00 0.00 0.00 83 1013.5
20200714144335 85 182 6.0 10.0 0.00 0.00 0.00 84 1013.4
20200714143334 84 203 6.0 11.0 0.00 0.00 0.00 87 1013.4
20200714142333 84 167 7.0 13.0 0.00 0.00 0.00 89 1013.3
20200714141344 83 183 8.0 10.0 0.00 0.00 0.00 89 1013.3
20200714140328 82 193 6.0 8.0 0.00 0.00 0.00 90 1013.3
20200714135348 82 193 6.0 11.0 0.00 0.00 0.00 91 1013.2
20200714134345 82 193 6.0 12.0 0.00 0.00 0.00 92 1013.0
20200714133345 81 178 4.0 9.0 0.00 0.00 0.00 93 1013.0
20200714132346 80 158 3.0 6.0 0.00 0.00 0.00 93 1012.9
20200714131341 80 198 2.0 6.0 0.00 0.00 0.00 94 1012.5
20200714130340 79 148 2.0 5.0 0.00 0.00 0.00 94 1012.5
20200714125341 79 162 2.0 4.0 0.00 0.00 0.00 95 1012.5
20200714124340 79 166 2.0 3.0 0.00 0.00 0.00 95 1012.5
20200714123344 78 143 0.0 0.0 0.00 0.00 0.00 95 1012.5
20200714122343 78 143 0.0 2.0 0.00 0.00 0.00 95 1012.4
20200714121335 78 143 1.0 2.0 0.00 0.00 0.00 95 1012.1
20200714120334 77 143 0.0 1.0 0.00 0.00 0.00 95 1012.1
20200714115333 77 143 0.0 2.0 0.00 0.00 0.00 95 1012.0
20200714114337 77 143 0.0 2.0 0.00 0.00 0.00 95 1011.9
20200714113337 77 128 0.0 1.0 0.00 0.00 0.00 95 1011.9
20200714112335 77 128 1.0 2.0 0.00 0.00 0.00 95 1011.8
20200714111347 77 163 1.0 3.0 0.00 0.00 0.00 95 1011.4
20200714110331 78 160 1.0 3.0 0.00 0.00 0.00 95 1011.4
20200714105328 78 169 1.0 2.0 0.00 0.00 0.00 94 1011.4
20200714104328 78 167 1.0 4.0 0.00 0.00 0.00 94 1011.3
20200714103348 78 157 1.0 3.0 0.00 0.00 0.00 94 1011.3
20200714102330 78 169 1.0 3.0 0.00 0.00 0.00 94 1011.4
20200714101342 78 174 2.0 5.0 0.00 0.00 0.00 94 1011.3
20200714100341 78 158 2.0 5.0 0.00 0.00 0.00 94 1011.3
20200714095342 78 205 2.0 5.0 0.00 0.00 0.00 94 1011.3
20200714094342 78 180 2.0 5.0 0.00 0.00 0.00 94 1011.3
20200714093346 78 167 3.0 5.0 0.00 0.00 0.00 94 1011.3
20200714092343 78 180 2.0 5.0 0.00 0.00 0.00 94 1011.3
20200714091333 78 142 3.0 5.0 0.00 0.00 0.00 94 1011.3
20200714090333 78 203 3.0 5.0 0.00 0.00 0.00 95 1011.3
20200714085339 78 159 2.0 4.0 0.00 0.00 0.00 94 1011.3
20200714084338 78 142 1.0 3.0 0.00 0.00 0.00 94 1011.4
20200714083335 78 153 1.0 3.0 0.00 0.00 0.00 94 1011.4
20200714082337 78 153 1.0 3.0 0.00 0.00 0.00 94 1011.6
20200714081327 78 178 2.0 5.0 0.00 0.00 0.00 94 1011.8
20200714080331 79 151 2.0 5.0 0.00 0.00 0.00 94 1011.8
20200714075331 79 157 2.0 5.0 0.00 0.00 0.00 94 1011.9
20200714074329 78 138 2.0 6.0 0.00 0.00 0.00 94 1011.9
20200714073329 78 147 2.0 4.0 0.00 0.00 0.00 94 1011.9
20200714072332 78 157 2.0 7.0 0.00 0.00 0.00 94 1011.6
20200714071342 78 165 3.0 6.0 0.00 0.00 0.00 94 1011.5
20200714070338 78 146 2.0 5.0 0.00 0.00 0.00 94 1011.5
20200714065339 78 117 3.0 6.0 0.00 0.00 0.00 94 1011.4
20200714064339 78 147 3.0 6.0 0.00 0.00 0.00 94 1011.6
20200714063341 78 165 2.0 4.0 0.00 0.00 0.00 94 1011.6
20200714062340 78 168 2.0 3.0 0.00 0.00 0.00 94 1011.9
20200714061333 78 153 2.0 4.0 0.00 0.00 0.00 94 1011.9
20200714060329 78 145 1.0 4.0 0.00 0.00 0.00 94 1011.9
20200714055332 78 123 1.0 3.0 0.00 0.00 0.00 94 1011.9
20200714054333 78 161 0.0 2.0 0.00 0.00 0.00 94 1011.9
20200714053330 78 121 0.0 2.0 0.00 0.00 0.00 94 1011.9
20200714052329 78 134 0.0 1.0 0.00 0.00 0.00 93 1012.0
20200714051341 78 135 1.0 4.0 0.00 0.00 0.00 93 1011.9
20200714050345 78 148 1.0 4.0 0.00 0.00 0.00 93 1011.9
20200714045345 79 123 1.0 3.0 0.00 0.00 0.00 93 1012.2
20200714044353 79 111 1.0 3.0 0.00 0.00 0.00 93 1012.1
20200714043346 79 132 0.0 4.0 0.00 0.00 0.00 93 1012.1
20200714042331 79 161 1.0 3.0 0.00 0.00 0.00 92 1012.2
20200714041339 79 133 2.0 5.0 0.00 0.00 0.00 92 1012.1
20200714040339 79 120 1.0 3.0 0.00 0.00 0.00 92 1012.1
20200714035341 79 167 1.0 4.0 0.00 0.00 0.00 92 1012.0
20200714034344 80 135 1.0 5.0 0.00 0.00 0.00 91 1012.1
20200714033345 80 142 1.0 3.0 0.00 0.00 0.00 91 1012.1
20200714032345 80 49 1.0 3.0 0.00 0.00 0.00 91 1012.0
20200714031335 80 106 1.0 3.0 0.00 0.00 0.00 90 1011.9
20200714030333 80 129 1.0 4.0 0.00 0.00 0.00 90 1011.9
20200714025338 81 144 1.0 4.0 0.00 0.00 0.00 89 1011.8
20200714024333 81 158 2.0 6.0 0.00 0.00 0.00 89 1011.5
20200714023333 81 94 1.0 3.0 0.00 0.00 0.00 88 1011.5
20200714022333 82 146 1.0 5.0 0.00 0.00 0.00 87 1011.4
20200714021346 82 152 3.0 7.0 0.00 0.00 0.00 86 1011.3
20200714020345 82 150 3.0 7.0 0.00 0.00 0.00 86 1011.3
20200714015345 83 164 4.0 7.0 0.00 0.00 0.00 85 1011.2
20200714014341 83 173 4.0 7.0 0.00 0.00 0.00 84 1011.0
20200714013343 83 181 3.0 8.0 0.00 0.00 0.00 83 1011.0
20200714012349 84 146 4.0 8.0 0.00 0.00 0.00 81 1010.8
20200714011338 85 109 4.0 10.0 0.00 0.00 0.00 79 1010.7
20200714010336 85 140 6.0 12.0 0.00 0.00 0.00 77 1010.7
20200714005334 86 131 5.0 14.0 0.00 0.00 0.00 76 1010.8
20200714004336 87 139 6.0 14.0 0.00 0.00 0.00 74 1010.7
20200714003336 88 172 5.0 11.0 0.00 0.00 0.00 72 1010.7
20200714002334 88 122 4.0 11.0 0.00 0.00 0.00 71 1010.6
20200714001347 89 188 5.0 13.0 0.00 0.00 0.00 70 1010.4
20200714000329 89 150 7.0 12.0 0.00 0.00 0.00 70 1010.4
20200713235329 90 186 6.0 13.0 0.00 0.00 0.00 68 1010.4
20200713235153 91 175 6.0 12.0 0.00 0.00 0.00 64 1010.3
20200713233330 91 185 6.0 11.0 0.00 0.00 0.00 62 1010.3
20200713232330 92 75 6.0 17.0 0.00 0.00 0.00 59 1010.2
20200713231345 92 153 6.0 17.0 0.00 0.00 0.00 60 1010.3
20200713230345 92 169 7.0 12.0 0.00 0.00 0.00 59 1010.3
20200713225344 93 157 6.0 10.0 0.00 0.00 0.00 59 1010.3
20200713224343 93 161 5.0 11.0 0.00 0.00 0.00 60 1010.4
20200713223348 93 152 5.0 14.0 0.00 0.00 0.00 60 1010.4
20200713222347 93 94 5.0 9.0 0.00 0.00 0.00 61 1010.4
20200713221337 93 154 6.0 13.0 0.00 0.00 0.00 61 1010.7
20200713215926 93 140 6.0 10.0 0.00 0.00 0.00 61 1010.9
20200713214344 94 160 5.0 11.0 0.00 0.00 0.00 65 1010.9
20200713213341 94 156 6.0 12.0 0.00 0.00 0.00 61 1010.9
20200713212340 94 131 7.0 12.0 0.00 0.00 0.00 63 1010.9
20200713211330 94 117 6.0 12.0 0.00 0.00 0.00 63 1011.3
20200713210337 95 130 5.0 12.0 0.00 0.00 0.00 60 1011.3
20200713205335 94 113 6.0 10.0 0.00 0.00 0.00 60 1011.4
20200713204337 95 180 5.0 8.0 0.00 0.00 0.00 54 1011.3
20200713203342 95 224 6.0 12.0 0.00 0.00 0.00 56 1011.3
20200713202338 95 194 6.0 10.0 0.00 0.00 0.00 57 1011.4
20200713201329 95 210 6.0 10.0 0.00 0.00 0.00 59 1011.3
20200713200330 94 121 5.0 10.0 0.00 0.00 0.00 56 1011.3
20200713195329 94 145 6.0 11.0 0.00 0.00 0.00 59 1011.4
20200713194330 95 110 4.0 11.0 0.00 0.00 0.00 58 1011.4
20200713193338 94 161 6.0 11.0 0.00 0.00 0.00 59 1011.4